GFSGBSN_850_dewp_231.txt.gz
Dewpoint
1 1 1 0 1 1 1 -0 -0 -1 -3 -11 -8 -4 -2 -1 -0 0 2 3 2 5 7 8 8 8 6 3 -2 2 2 2 2 2 3 2 0 0 1 -0 -1 0 -1 -1 -0 -1 -1
0 1 0 0 0 1 1 0 1 0 -1 -3 -9 -8 -4 -1 -1 -1 1 3 3 2 4 7 8 8 8 6 -1 -3 1 3 3 2 1 0 0 0 0 -0 -1 -1 -1 -2 -1 -2 -2
-0 0 -0 -1 -0 -0 0 1 1 0 -0 -2 -3 -9 -7 -3 -1 -1 0 2 3 2 2 3 6 7 7 6 0 -2 -3 -2 2 1 -0 1 1 1 1 1 0 0 1 -0 -1 -1 -1
-1 -0 -0 -1 -1 -1 -0 0 1 1 0 -1 -2 -2 -6 -5 -3 -2 -1 0 1 2 2 1 2 5 6 8 7 2 -0 -1 -3 -2 -1 -0 2 3 2 1 1 1 1 2 -1 -1 -1
-1 -1 -1 -1 -1 -1 -1 -1 0 1 1 1 1 -0 -1 -6 -6 -3 -2 -0 0 1 1 2 1 3 6 7 7 7 2 -1 0 3 4 3 3 4 2 3 3 2 3 3 1 -2 -2
-1 -2 -2 -1 -2 -2 -2 -2 -1 -1 -1 -1 0 0 0 -0 -4 -2 -1 -1 -1 0 1 1 2 2 3 7 7 7 7 2 -1 -1 3 4 5 4 3 4 6 4 4 3 1 -1 -1
-3 -2 -2 -1 -2 -1 -1 -1 -3 -3 -3 -4 -3 -1 -0 0 -0 -4 -0 -1 -1 1 1 0 1 3 5 7 6 7 7 6 4 2 3 5 6 7 4 3 3 1 2 2 1 -1 -0
-3 -3 -3 -3 -2 -2 -1 -2 -3 -3 -3 -3 -2 -2 -2 -1 1 -0 -2 0 -0 1 1 1 2 3 2 4 7 5 5 4 4 4 2 5 7 3 3 3 4 4 4 3 1 -0 1
-4 -4 -4 -3 -3 -3 -2 -3 -3 -4 -3 -4 -3 -2 -2 -2 -0 0 -4 -3 -0 1 1 -0 0 2 2 1 4 6 5 4 4 4 3 2 -0 1 3 4 5 4 5 4 3 1 1
-4 -4 -4 -4 -4 -4 -3 -4 -2 -2 -3 -4 -3 -4 -3 -1 -1 0 -0 -3 -3 1 1 -2 -1 -2 1 2 4 4 6 4 4 5 3 2 -2 1 3 4 4 5 3 3 3 4 4
-4 -4 -5 -4 -4 -4 -4 -4 -2 -2 -2 -3 -3 -2 -2 -2 -0 0 -0 -2 -4 0 1 -5 -2 -2 -1 3 4 5 5 5 6 3 3 6 4 2 3 3 3 3 1 3 4 5 5
-3 -4 -4 -4 -4 -4 -4 -5 -5 -3 -3 -3 -4 -3 -2 -2 -1 -1 -0 -2 -0 2 -1 -4 -2 3 2 2 1 2 5 6 7 6 3 3 1 1 1 1 3 3 3 4 4 5 7
-3 -4 -5 -4 -4 -4 -4 -3 -3 -3 -3 -4 -4 -4 -2 -1 -1 -1 -0 -1 1 0 -6 -5 0 2 3 3 3 1 7 8 8 9 9 6 4 1 1 3 2 4 6 11 11 10 8
-3 -3 -4 -7 -6 -7 -6 -5 -5 -4 -3 -5 -5 -5 -5 -2 -2 -1 0 0 1 -2 -4 -5 -4 -0 4 3 4 3 5 8 7 7 8 9 10 7 3 3 4 5 5 9 9 7 5
-4 -3 -3 -5 -7 -8 -9 -9 -5 -5 -6 -6 -4 -3 -1 -4 -2 -1 -0 0 -1 -4 -5 -6 -7 -3 -1 2 4 5 5 7 6 6 8 9 9 4 3 2 2 5 7 6 8 6 8
-4 -4 -4 -4 -5 -6 -7 -10 -5 -6 -6 -6 -3 -3 -4 -4 -1 -0 -0 -0 -2 -7 -9 -8 -7 -5 -3 -2 2 6 5 5 6 5 5 5 8 4 5 3 2 4 4 9 8 11 10
-3 -4 -5 -5 -5 -5 -5 -8 -7 -7 -6 -6 -4 -2 -6 -3 -1 -0 -1 -2 -3 -5 -7 -7 -7 -8 -6 -7 -8 -3 5 3 4 4 5 5 6 7 6 7 7 6 6 8 8 8 8
-4 -3 -5 -5 -5 -5 -5 -5 -5 -7 -6 -5 -4 -1 -3 -1 0 -0 -1 -3 -4 -5 -6 -6 -6 -6 -7 -8 -8 -6 -3 -1 2 2 2 5 7 8 7 4 5 5 6 7 9 10 8
-4 -4 -4 -4 -5 -5 -8 -5 -5 -7 -6 -3 -3 -2 -4 -1 -0 -0 -1 -1 -4 -4 -5 -6 -5 -6 -7 -7 -6 -7 -7 -10 -10 -1 2 3 7 8 6 5 5 7 5 5 6 6 8
-2 -6 -5 -4 -5 -4 -7 -8 -4 -5 -6 -4 -4 -2 -2 -1 -1 -1 -1 -0 0 -3 -4 -4 -5 -6 -6 -3 -5 -5 -6 -8 -6 -6 -0 2 4 6 7 5 5 6 7 5 5 8 7
-6 -7 -5 -7 -6 -4 -6 -7 -5 -5 -5 -3 -5 -3 -2 -1 -2 -1 -1 -2 -2 -2 -3 -4 -2 -3 -4 -2 -3 -3 -4 -5 -6 -6 -0 2 3 3 2 2 1 2 4 6 7 6 8
-4 -7 -4 -13 -5 -4 -6 -5 -6 -5 -5 -3 -4 -4 -3 -2 -2 -1 -1 -0 -0 -0 -0 -1 -1 -4 -3 -2 -3 -4 -4 -3 -5 -5 -4 0 0 -1 1 -2 -4 1 -0 2 3 6 6
-5 -6 -4 -11 -5 -5 -6 -6 -8 -5 -6 -4 -5 -4 -3 -4 -2 -1 -2 -3 -2 -4 -2 -3 -3 -3 -2 -3 -5 -6 -7 -6 -4 -4 -3 -0 -1 -1 0 -4 -0 1 1 -1 4 5 7
-7 -4 -3 -7 -5 -6 -6 -7 -8 -6 -7 -5 -5 -4 -3 -4 -4 -3 -5 -4 -3 -3 -2 -4 -4 -2 -4 -4 -6 -6 -6 -6 -5 -4 -4 -2 -1 -0 0 -2 -0 -6 -6 -0 3 3 2
-7 -4 -4 -5 -5 -4 -7 -6 -6 -7 -8 -5 -7 -3 -3 -3 -4 -5 -5 -3 -4 -4 -3 -3 -3 -3 -4 -4 -0 -0 -1 -2 -3 -4 -4 -3 -1 -0 0 -1 -3 -6 -8 -7 -3 0 -2
-4 -6 -5 -6 -7 -5 -7 -7 -7 -6 -6 -5 -7 -5 -3 -3 -4 -4 -4 -5 -3 -3 -2 -3 -4 -4 -3 0 0 -0 -1 -2 -3 -3 -5 -5 -3 -1 -1 -1 -1 -7 -11 -10 -10 -4 -8
-4 -6 -8 -6 -5 -6 -8 -7 -6 -4 -5 -5 -5 -4 -3 -3 -4 -2 -2 -3 -4 -2 -1 -1 -1 -0 -0 0 0 -0 -1 -5 -3 -3 -1 -2 -1 -1 -0 -0 -3 -7 -10 -11 -3 -3 -7
-5 -6 -7 -8 -7 -8 -6 -7 -5 -5 -5 -4 -5 -4 -3 -3 -3 -2 -3 -1 -1 -1 -0 0 0 -0 0 1 0 -0 -0 -2 -3 -6 -4 -2 -1 -1 -0 0 -0 -8 -9 -6 -7 -9 -9
-5 -6 -7 -7 -6 -5 -6 -6 -5 -6 -4 -4 -4 -3 -4 -2 -2 -2 -2 -3 -3 -1 -0 -1 0 -1 -1 0 -0 -1 -1 -2 -3 -2 -6 -2 -3 -2 -2 -2 -4 -8 -6 -8 -10 -8 1

GFSGBSN_850_dewp_234.txt.gz
Dewpoint
1 0 1 0 -0 -0 0 1 -0 -0 1 0 -2 -5 -12 -11 -6 -2 -1 0 2 3 3 5 7 8 8 7 3 1 2 2 2 2 3 1 0 -0 0 -1 -1 0 -2 -1 -2 -2 -2
-0 -0 -1 -1 -1 -1 -1 -0 0 1 -0 -0 -1 -2 -4 -11 -8 -3 -1 -1 0 2 3 2 4 6 7 7 2 0 -1 3 3 3 3 2 -0 -1 -1 -1 -0 -2 -2 -2 -2 -2 -2
-1 -0 -0 -1 -1 -1 -1 -2 -1 0 0 1 1 -0 -2 -4 -10 -5 -3 -2 -0 1 3 2 2 3 4 7 5 3 -2 0 3 4 2 1 1 0 -0 0 -0 -1 -0 -1 -1 -2 -2
-2 -1 -1 -1 -1 -1 -2 -2 -2 -1 -1 0 0 1 1 -0 -2 -9 -7 -3 -2 -0 1 2 2 2 3 5 7 5 4 3 -1 1 3 3 3 1 1 0 0 1 0 1 -2 -2 -2
-3 -2 -2 -2 -1 -1 -2 -2 -2 -3 -3 -2 -2 -1 -1 -1 0 -2 -8 -5 -3 -2 0 2 2 2 2 3 6 7 7 5 2 2 1 3 3 2 2 2 2 1 1 1 -1 -2 -2
-1 -2 -2 -3 -2 -1 -2 -3 -3 -3 -4 -3 -4 -3 -3 -2 -1 -0 -4 -6 -4 -2 -1 1 1 0 1 2 5 7 7 6 3 2 5 4 2 2 3 3 4 1 2 1 1 -1 -1
-3 -3 -3 -3 -2 -2 -2 -2 -3 -3 -4 -3 -3 -4 -3 -3 -3 -1 0 -1 -2 0 2 -0 2 2 2 5 6 7 7 7 3 1 2 3 4 5 2 2 1 -1 -0 1 -1 -2 -1
-5 -4 -3 -5 -2 -3 -2 -3 -3 -4 -5 -4 -4 -3 -4 -2 -3 -1 0 -1 -2 0 1 1 1 2 1 1 4 4 6 7 7 5 0 3 5 1 0 -0 1 2 2 1 -1 -1 0
-4 -6 -6 -4 -3 -3 -3 -3 -4 -3 -2 -4 -3 -2 -3 -4 -2 -3 1 1 -1 0 2 -0 -1 0 1 2 3 3 6 6 7 7 4 1 1 -0 -1 1 3 3 2 1 1 -0 0
-3 -4 -6 -6 -4 -4 -3 -4 -4 -3 -2 -3 -4 -4 -3 -2 -3 0 0 1 -0 -1 2 -4 -2 -1 0 2 2 2 5 5 6 8 6 3 -2 -3 0 3 2 4 0 0 0 2 4
-2 -3 -4 -6 -6 -6 -4 -4 -4 -4 -4 -3 -4 -4 -4 -2 -2 0 -0 -1 -2 -2 2 -7 -5 -3 -1 2 -1 2 2 6 7 6 6 7 5 1 -2 -0 -0 1 -2 0 1 2 1
-3 -2 -3 -4 -4 -5 -7 -5 -4 -4 -5 -5 -7 -6 -5 -1 -2 -1 -2 -1 -2 2 -0 -7 -6 -1 -0 1 -1 0 4 5 7 7 6 6 3 3 2 -2 -2 -3 0 -1 1 2 5
-3 -3 -2 -3 -4 -5 -7 -6 -10 -6 -6 -6 -8 -8 -6 -3 -1 -2 -1 -0 2 2 -9 -9 -7 -4 0 2 2 -1 6 7 7 8 8 6 7 5 2 2 1 0 3 11 11 8 6
-5 -3 -3 -3 -3 -4 -7 -7 -11 -6 -6 -6 -7 -10 -4 -9 -4 -3 -1 1 1 -6 -5 -10 -7 -8 -3 4 1 1 3 7 6 6 8 9 9 7 5 4 6 6 7 9 10 9 6
-3 -4 -5 -4 -4 -4 -5 -6 -7 -7 -6 -8 -8 -3 -2 -8 -7 -1 -0 1 -2 -6 -7 -7 -10 -9 -9 -4 4 3 3 4 6 6 8 9 9 6 3 1 3 7 10 5 8 8 7
-4 -5 -3 -4 -4 -5 -5 -5 -5 -5 -7 -10 -3 -3 -3 -3 -1 -0 0 -1 -4 -5 -7 -8 -7 -10 -8 -10 -5 2 5 4 2 5 5 7 8 6 6 5 4 7 5 9 9 12 11
-4 -5 -5 -4 -5 -5 -5 -5 -5 -5 -5 -12 -3 -3 -3 -3 -1 -0 1 -2 -5 -6 -6 -3 -7 -7 -8 -8 -9 -8 -7 -2 3 3 3 6 7 6 6 8 8 9 9 9 8 8 8
-7 -7 -5 -4 -5 -6 -5 -5 -7 -5 -5 -7 -3 -2 -3 -3 0 -0 1 -3 -5 -5 -5 -5 -5 -5 -6 -7 -7 -6 -7 -9 -1 -1 1 2 4 9 6 3 5 5 7 8 10 10 7
-6 -5 -3 -4 -6 -6 -5 -5 -6 -6 -5 -5 -3 -4 -5 -1 -2 0 -3 -1 -1 -3 -5 -6 -6 -7 -7 -6 -5 -8 -8 -10 -10 -3 0 -5 3 5 7 4 6 8 6 7 7 6 8
-4 -3 -3 -6 -6 -8 -6 -4 -6 -6 -6 -7 -3 -3 -3 -1 -3 -3 -2 -1 -3 -1 -2 -4 -5 -6 -4 -3 -5 -6 -7 -9 -7 -7 -4 -2 -0 2 4 4 3 4 3 3 6 9 8
-6 -5 -3 -6 -5 -12 -8 -4 -5 -5 -6 -5 -3 -4 -5 -3 -2 -4 -6 -1 -2 -4 -1 -4 -1 -2 -3 -2 -3 -2 -5 -6 -8 -8 -7 0 3 2 1 -1 -0 1 2 1 3 4 9
-4 -6 -6 -5 -5 -7 -9 -4 -5 -4 -7 -4 -4 -4 -6 -6 -7 -6 -6 -4 -4 -5 -3 -3 -3 -4 -3 -3 -3 -1 -4 -4 -5 -6 -5 -5 1 -1 0 -1 -3 -3 -5 -2 1 3 3
-5 -5 -6 -6 -5 -5 -7 -4 -6 -6 -7 -3 -5 -5 -4 -7 -6 -5 -6 -5 -5 -8 -6 -6 -3 -3 -4 -2 -5 -5 -5 -5 -5 -4 -4 -1 -0 -1 -1 -5 -4 -1 -2 -3 -3 -2 1
-5 -4 -5 -6 -4 -3 -5 -4 -5 -7 -6 -4 -5 -4 -5 -4 -6 -7 -9 -8 -8 -8 -7 -7 -6 -4 -5 -7 -5 -4 -4 -4 -4 -4 -5 -0 -0 -1 -1 -3 1 -5 -10 -9 -6 -3 -1
-5 -5 -4 -5 -5 -5 -6 -5 -4 -5 -5 -4 -4 -3 -5 -4 -7 -7 -8 -8 -9 -9 -7 -7 -8 -7 -6 -5 1 1 1 1 -1 -3 -4 -4 -1 -0 0 -2 -5 -7 -10 -9 -7 -5 -6
-5 -5 -5 -5 -5 -8 -8 -5 -5 -8 -8 -6 -4 -4 -3 -4 -6 -10 -7 -8 -4 -4 -3 -4 -6 -5 -4 1 1 1 0 -3 -2 -2 -5 -5 -4 1 -1 0 -3 -10 -13 -12 -11 -4 -12
-5 -5 -5 -5 -6 -7 -7 -6 -7 -8 -6 -4 -4 -4 -3 -4 -6 -7 -4 -5 -7 -4 -1 -2 -3 -2 -2 2 1 1 1 -4 -1 -2 -1 -1 0 2 2 1 -3 -9 -11 -12 -5 -6 -11
-5 -5 -7 -5 -7 -8 -7 -7 -6 -6 -7 -5 -4 -4 -3 -4 -5 -6 -6 -3 -3 -1 -0 -2 -0 0 1 2 2 2 1 -2 -1 -6 -5 -1 -0 0 -0 1 1 -9 -10 -7 -9 -11 -11
-5 -6 -6 -5 -8 -6 -6 -6 -7 -6 -6 -7 -4 -4 -6 -4 -4 -3 -3 -4 -3 -2 -2 -1 -2 -2 1 2 2 1 2 -1 -2 -2 -7 -2 -3 -2 -4 -2 -7 -10 -9 -11 -10 -10 -10

GFSGBSN_850_dewp_240.txt.gz
Dewpoint
-10 -6 -6 -5 -4 -4 0 -1 -3 -4 -5 -5 -2 -1 -1 -0 -0 -1 -1 -2 -5 -10 -9 -6 -3 0 -0 1 4 6 6 3 3 -1 0 -0 0 2 1 -0 -1 -0 -2 -3 -4 -5 -5
-5 -2 -2 -1 -5 -3 -2 -3 -1 -2 -4 -6 -7 -5 -4 -3 -4 -2 -1 -2 -2 -4 -9 -9 -4 -2 0 1 2 6 5 5 4 3 1 -1 -1 0 0 -0 -0 -1 -1 -2 -3 -3 -5
-3 -5 -2 -3 -5 -8 -4 -5 -2 -3 -2 -5 -7 -8 -7 -7 -5 -5 -3 -3 -3 -2 -4 -9 -6 -2 2 -1 -3 3 5 4 4 4 3 0 -1 -1 -1 -0 -1 -1 -0 -2 -2 -3 -3
-9 -6 -4 -6 -9 -6 -2 -4 -2 -2 -4 -6 -7 -8 -7 -8 -9 -8 -7 -4 -4 -5 -2 -6 -4 0 2 -0 -3 -5 -0 1 3 4 4 2 0 -1 -1 -1 -1 -1 -0 2 -1 -2 -3
-5 -6 -7 -12 -13 -6 -5 -4 -3 -3 -4 -7 -8 -11 -10 -9 -8 -8 -8 -8 -8 -8 -2 -3 -1 2 1 0 -2 -1 1 2 3 4 3 3 2 1 0 1 1 -0 2 1 0 -3 -3
-3 -4 -5 -7 -13 -11 -7 -3 -3 -6 -7 -5 -9 -13 -12 -8 -7 -7 -9 -10 -15 -6 0 1 1 2 1 -1 -0 2 4 5 6 6 7 1 3 4 2 2 4 3 2 1 1 -2 -2
-2 -2 -3 -5 -7 -11 -8 -4 -4 -8 -9 -7 -4 -8 -14 -13 -11 -9 -8 -2 -5 -1 3 1 0 1 -1 -3 -1 -0 3 5 4 6 9 1 6 6 4 2 1 1 1 0 -1 -2 -2
-3 -2 -2 -3 -5 -7 -9 -10 -13 -13 -11 -11 -14 -15 -16 -17 -16 -11 -3 0 -0 1 2 -1 -2 -3 -3 -2 -2 -1 1 4 5 7 7 7 6 4 2 1 1 1 0 0 -1 -2 -2
-2 -3 -3 -2 -3 -4 -7 -9 -10 -12 -7 -7 -10 -15 -19 -20 -20 -3 0 -1 1 1 0 -3 -5 -5 -6 -6 -4 -2 1 3 4 4 7 9 3 3 2 1 2 1 1 0 -0 -2 -3
-6 -4 -4 -3 -2 -2 -4 -6 -9 -10 -12 -15 -9 -9 -12 -22 -7 -2 -4 -1 -0 -0 1 -5 -8 -7 -6 -6 -2 -1 -2 1 4 5 5 7 6 2 3 3 0 2 -1 -1 -1 -1 -1
-3 -4 -6 -5 -3 -3 -2 -3 -5 -7 -9 -15 -11 -8 -9 -10 -8 -2 -4 -2 -2 -0 2 -12 -12 -6 -7 -3 -5 2 -0 -0 3 5 6 7 7 6 3 3 1 1 -2 -1 -1 0 -0
-5 -5 -4 -4 -7 -3 -3 -3 -4 -5 -7 -8 -11 -12 -12 -4 -3 -4 -2 -0 -1 2 -0 -9 -11 -5 -0 0 -2 -2 0 1 3 4 4 4 3 4 5 2 1 -0 -0 -1 -1 0 3
-4 -5 -3 -5 -5 -6 -6 -4 -4 -5 -6 -6 -8 -8 -16 -5 -3 -3 -3 -1 1 1 -9 -9 -5 -6 -5 -9 -2 1 1 4 3 5 6 4 5 4 4 7 5 4 2 6 7 7 9
-5 -5 -1 -2 -3 -5 -6 -5 -4 -5 -5 -7 -6 -6 -6 -3 -1 -3 -2 -1 -1 -7 -7 -10 -5 -6 -11 1 3 2 4 5 4 5 7 6 7 5 5 6 7 5 6 9 11 11 9
-5 -5 -3 -1 -3 -5 -6 -5 -5 -6 -7 -7 -8 -3 -4 -6 -4 -3 -1 -1 -5 -8 -11 -5 -4 -6 -8 -8 1 2 3 3 3 2 5 8 8 5 5 5 6 7 7 5 8 5 6
-4 -5 -4 -5 -8 -6 -5 -6 -6 -7 -6 -6 -4 -4 -5 1 -4 -2 -1 -3 -6 -9 -9 -8 -2 -6 -8 -8 -4 -4 2 2 3 2 1 4 7 -0 5 6 7 9 7 9 8 11 11
-5 -5 -6 -4 -7 -6 -4 -4 -5 -6 -6 -7 -4 -4 -6 -4 -5 -0 0 -3 -6 -9 -9 -2 -1 -7 -6 -7 -8 -7 -6 -3 0 2 0 3 4 6 1 8 8 8 8 9 8 10 10
-4 -5 -4 -6 -4 -4 -4 -6 -5 -7 -6 -5 -3 -1 -5 -1 -2 -0 -1 -5 -7 -7 -6 -4 -2 -2 -4 -9 -8 -6 0 -2 -2 -3 1 2 2 4 7 6 5 6 7 8 9 10 10
-4 -4 -5 -5 -7 -5 -4 -6 -5 -10 -5 -3 -4 -5 -7 -6 -0 -1 -5 -7 -8 -7 -6 -2 -1 -5 -6 -6 -4 -5 -4 -1 -4 -2 0 -0 2 4 2 5 2 5 4 4 5 7 8
-4 -5 -4 -4 -5 -6 -5 -4 -6 -10 -4 -4 -2 -2 -3 -6 -4 -5 -5 -4 -6 -9 -8 -6 -4 -6 -5 -3 -6 -4 -4 -2 -3 -3 -1 -1 1 1 3 3 3 4 4 4 4 8 9
-3 -4 -4 -4 -5 -5 -7 -7 -6 -7 -4 -3 -2 -2 -5 -2 -1 -5 -7 -7 -7 -9 -12 -12 -8 -5 -2 1 -1 -4 -5 -5 -4 -4 -2 -0 1 0 0 -0 1 2 4 4 4 5 6
-5 -4 -5 -4 -6 -4 -5 -7 -7 -5 -6 -3 -3 -2 -5 -5 -7 -6 -6 -6 -7 -8 -9 -8 -5 -6 -5 -2 0 1 3 -1 -1 -5 -3 0 1 0 1 -2 -3 -2 -1 -1 0 1 2
-4 -4 -4 -6 -6 -4 -4 -7 -6 -3 -5 -3 -3 -4 -3 -4 -5 -4 -5 -7 -8 -9 -9 -10 -7 -6 -4 -6 -6 -4 -2 -1 -4 -3 -2 1 3 1 -0 -2 -1 2 -1 -4 -4 -4 -3
-3 -3 -5 -5 -5 -4 -3 -4 -5 -4 -4 -3 -3 -2 -2 -2 -4 -6 -9 -10 -11 -11 -10 -9 -9 -8 -10 -9 -8 -8 -8 -6 -5 -5 -5 -0 1 1 1 0 2 -5 -9 -8 -4 -4 -5
-4 -3 -4 -7 -4 -4 -4 -4 -6 -6 -5 -4 -3 -2 -2 -2 -5 -7 -6 -9 -10 -10 -10 -12 -11 -10 -9 -10 -2 -1 -1 1 1 -4 -5 -4 -0 1 2 -1 -3 -6 -8 -8 -8 -5 -8
-4 -3 -4 -6 -6 -5 -5 -4 -6 -7 -7 -7 -5 -3 -3 -2 -3 -8 -6 -7 -4 -4 -5 -8 -8 -7 -4 -0 -0 -1 -2 -3 -3 -1 -6 -5 -3 1 1 1 -1 -9 -12 -11 -9 -3 -9
-4 -3 -4 -6 -4 -5 -5 -4 -6 -8 -8 -7 -4 -3 -3 -3 -3 -5 -4 -4 -6 -5 -3 -5 -6 -1 -2 -0 0 -0 -1 -7 -2 -1 -1 -1 1 2 2 2 -2 -8 -10 -11 -4 -4 -8
-4 -4 -6 -5 -4 -6 -7 -5 -6 -8 -7 -5 -4 -5 -4 -3 -4 -4 -6 -6 -6 -6 -2 -5 -3 -3 -1 -1 1 -0 -1 -2 -2 -4 -3 -1 2 1 1 1 2 -8 -9 -6 -6 -8 -9
-4 -5 -5 -4 -5 -5 -7 -5 -6 -6 -5 -6 -5 -6 -6 -5 -4 -6 -4 -5 -4 -5 -5 -4 -2 -3 -2 -1 -0 1 -0 1 2 3 -4 1 1 1 -2 -1 -3 -7 -7 -8 -8 -8 -8

GFSGBSN_850_dewp_246.txt.gz
Dewpoint
-4 -7 -9 -19 -19 -13 -10 -15 -15 -18 -20 -19 -20 -21 -21 -22 -21 -22 -22 -22 -21 -19 -16 -11 -5 -4 -4 -3 -8 -16 -15 -13 -11 -3 3 4 5 3 3 2 2 2 2 1 0 -1 -2
-9 -9 -10 -15 -19 -16 -14 -15 -15 -17 -18 -23 -23 -22 -20 -20 -21 -21 -22 -24 -25 -24 -22 -16 -6 -4 0 0 -11 -14 -14 -14 -11 -11 -6 2 4 3 2 1 2 1 1 1 0 -1 -2
-6 -6 -7 -9 -15 -18 -19 -16 -15 -19 -22 -23 -22 -24 -24 -25 -25 -25 -25 -27 -28 -27 -21 -16 -9 -1 1 -1 -12 -12 -10 -10 -8 -6 -9 -4 4 2 3 2 -0 1 3 2 1 0 -0
-3 -3 -5 -6 -7 -11 -16 -16 -17 -21 -23 -24 -24 -25 -27 -28 -27 -27 -28 -28 -26 -22 -14 -17 -10 0 1 -8 -7 -9 -4 -5 -5 -3 -2 -5 2 3 3 4 3 1 1 4 1 0 -0
-3 -2 -2 -3 -5 -7 -8 -10 -14 -18 -20 -21 -21 -24 -26 -28 -29 -29 -29 -16 -7 -7 -4 -11 -5 0 0 -4 -5 -5 -2 -1 -2 -2 -0 2 3 5 4 6 5 2 4 3 2 -0 -0
-2 -3 -3 -2 -3 -4 -6 -7 -8 -11 -15 -18 -22 -22 -23 -25 -28 -28 -13 -8 -7 -1 -1 1 2 2 -0 -4 -3 -2 -1 0 -1 -1 -2 5 5 6 6 7 7 5 3 2 3 -0 -0
-3 -4 -2 -4 -2 -2 -3 -5 -5 -7 -8 -14 -19 -24 -23 -23 -25 -12 -5 -7 -1 -0 -2 -2 -2 1 -2 -2 -1 -2 -0 0 0 0 2 1 7 8 6 6 5 2 2 1 -0 -1 -0
-4 -5 -6 -3 -3 -3 -3 -2 -3 -5 -6 -7 -9 -13 -19 -25 -25 -9 -3 -0 0 0 0 -3 -2 -2 -5 -3 -0 -2 -1 1 1 1 -0 0 4 3 5 5 7 4 3 2 -0 -1 -0
-5 -2 -4 -7 -8 -6 -3 -4 -3 -4 -5 -7 -8 -8 -11 -18 -14 -9 -7 -3 -3 -3 -2 -6 -7 -4 -4 -3 -0 -2 -2 0 1 1 1 2 -0 -0 3 5 7 7 3 2 2 0 -1
-6 -5 -7 -6 -3 -5 -9 -10 -7 -5 -5 -6 -8 -9 -8 -11 -14 -20 -4 -5 -7 -4 -3 -4 -5 -2 -2 -4 -3 -2 -1 -3 1 1 1 2 -0 -0 4 5 5 7 3 1 1 1 4
-4 -4 -5 -7 -4 -4 -5 -7 -10 -12 -7 -6 -7 -8 -9 -8 -7 -6 -7 -5 -6 -2 -7 -9 -6 -4 -8 -3 -4 1 -0 1 1 1 1 2 4 4 4 4 3 6 6 4 4 3 2
-2 -2 -2 -5 -3 -3 -3 -3 -5 -9 -5 -7 -8 -8 -10 -11 -7 -3 -1 -4 -2 -6 -4 -6 -11 -9 -8 -2 0 -2 -1 2 1 3 2 2 -0 2 4 3 2 4 6 7 6 5 7
-1 -2 -3 -5 -5 -3 -2 -3 -6 -9 -8 -7 -8 -12 -10 -10 -11 -5 -2 -3 -6 -6 -8 -7 -8 -8 -8 -2 -5 -1 -0 2 2 3 1 0 2 1 1 6 5 6 8 10 10 10 10
-3 -3 -4 -4 -6 -4 -5 -7 -6 -8 -8 -8 -13 -15 -12 -15 -7 -4 -2 -6 -6 -8 -6 -9 -8 -7 -6 -3 -4 -2 1 2 2 2 1 2 2 2 1 4 6 7 7 9 11 11 10
-4 -4 -5 -2 -4 -6 -6 -8 -5 -4 -5 -9 -15 -12 -6 -2 -4 -3 -2 -7 -7 -6 -8 -6 -5 -4 -6 -4 -3 -2 -1 1 1 2 1 1 0 -3 -2 2 4 7 9 7 9 9 9
-3 -4 -5 -5 -5 -5 -5 -4 -4 -5 -6 -11 -10 -6 -1 -2 -3 -2 -3 -4 -4 -6 -7 -6 -1 -3 -1 -3 -1 -2 -2 0 3 2 0 0 2 1 2 3 4 6 5 8 8 9 10
-4 -3 -3 -3 -4 -5 -5 -6 -4 -5 -6 -10 -5 -3 -2 -3 -4 -2 -5 -6 -4 -6 -6 -5 -4 -3 -3 1 -2 -1 -3 -0 1 1 1 1 1 -1 1 6 6 6 7 7 8 8 9
-3 -4 -3 -3 -4 -4 -4 -6 -6 -3 -7 -7 -5 -6 -2 -4 -6 -3 -6 -3 -5 -5 -6 -4 -3 -4 -4 -4 -4 -1 -2 -3 -1 -1 1 -1 -3 2 -2 1 3 5 6 6 8 8 9
-4 -3 -3 -3 -4 -4 -4 -5 -6 -4 -6 -9 -4 -4 -8 -5 -7 -9 -3 -3 -5 -5 -6 -7 -6 -7 -7 -5 -3 0 -2 -4 -3 -1 1 0 -2 -2 -3 2 0 3 3 4 4 6 10
-4 -3 -4 -4 -3 -4 -3 -4 -6 -7 -6 -7 -4 -5 -6 -4 -4 -4 -3 -4 -3 -6 -6 -8 -7 -7 -6 -3 -3 -2 -2 -4 -4 -2 -1 0 0 -2 -1 1 1 2 2 3 4 6 7
-4 -3 -3 -5 -4 -4 -4 -4 -5 -5 -6 -5 -4 -4 -4 -7 -7 -4 -4 -4 -4 -4 -7 -8 -7 -7 -4 -3 -4 -2 -3 -3 -4 -0 0 0 1 -1 -0 1 1 2 2 2 3 4 5
-3 -3 -4 -4 -4 -5 -5 -5 -4 -5 -6 -3 -6 -4 -3 -3 -5 -4 -5 -4 -4 -5 -5 -5 -6 -7 -6 -3 -4 -4 -4 -3 -2 -1 -1 1 2 2 1 0 0 2 1 1 1 3 3
-3 -4 -4 -3 -3 -4 -6 -6 -4 -3 -6 -3 -4 -5 -4 -5 -4 -3 -5 -5 -4 -5 -7 -7 -6 -6 -5 -6 -8 -7 -7 -6 -5 -4 -3 -0 0 -0 -0 -0 -0 0 0 -0 -1 -0 0
-3 -4 -4 -4 -3 -4 -4 -6 -4 -3 -3 -4 -3 -3 -3 -5 -4 -5 -5 -6 -5 -6 -5 -6 -6 -5 -7 -7 -7 -8 -8 -8 -6 -5 -5 -2 -2 0 0 -0 -2 -4 -6 -6 -2 -1 -3
-4 -4 -4 -4 -4 -4 -4 -7 -3 -3 -3 -3 -4 -4 -3 -3 -4 -5 -5 -5 -6 -5 -6 -7 -7 -7 -6 -7 -5 -8 -7 -7 -5 -5 -5 -4 -2 -2 -1 -0 -3 -4 -6 -8 -3 -3 -3
-4 -4 -4 -4 -5 -4 -4 -7 -5 -5 -4 -3 -5 -5 -4 -3 -5 -5 -3 -4 -5 -6 -6 -5 -6 -7 -6 -6 -7 -6 -6 -6 -6 -4 -3 -3 -3 -1 -2 -1 -2 -4 -6 -8 -7 -3 -4
-5 -5 -5 -4 -4 -4 -4 -6 -4 -5 -5 -3 -4 -6 -4 -4 -4 -5 -4 -5 -4 -5 -5 -6 -6 -5 -6 -11 -8 -6 -3 -4 -2 -3 -4 -2 1 -0 0 1 -1 -3 -6 -6 -3 -3 -5
-4 -4 -4 -4 -4 -5 -6 -4 -5 -5 -7 -4 -5 -7 -5 -4 -5 -6 -7 -5 -6 -5 -5 -7 -5 -7 -8 -4 -6 -6 -3 -1 -1 -3 -4 -3 -3 -2 -1 0 1 -4 -3 -2 -4 -6 -6
-5 -4 -5 -4 -5 -4 -5 -6 -5 -5 -7 -4 -5 -7 -5 -4 -5 -7 -7 -8 -7 -7 -3 -3 -4 -4 -5 -7 -6 -4 -3 -3 -2 -1 -2 0 0 1 -1 -1 -1 -0 -0 -1 -2 -3 -5